Tracking 19795 objects as of 20-Jul-2019
HD Live streaming from Space Station
objects crossing your sky now

FENGYUN 1C DEB

Track FENGYUN 1C DEB now!
10-day predictions


NORAD ID: 31047
Int'l Code: 1999-025BER
Perigee: 846.3 km
Apogee: 884.9 km
Inclination: 98.8 °
Period: 102.1 minutes
Semi major axis: 7236 km
RCS: 0.0107 m2 (small)
Launch date: May 10, 1999
Source: People's Republic of China (PRC)
Launch site: Taiyaun Space Center, China (TSC)

Note: This is SATELLITE DEBRIS
aabbcc
Your satellite tracking list
Your tracking list is empty




NASA's NSSDC Master Catalog

Two Line Element Set (TLE):
1 31047U 99025BER 19199.56391486 +.00000080 +00000-0 +69674-4 0  9995
2 31047 098.8079 230.3795 0026624 343.7573 167.9871 14.10270237633636
Source of the keplerian elements: AFSPC